Camarillo, CA

2:32 PM PDT on August 20, 2017 (GMT -0700)
Camarillo

Weather History for KCMA - October, 2012

Change the Weather History Date:

Thursday, October 4, 2012

  Actual Average Record
Temperature  
Mean Temperature 66 °F 64 °F  
Max Temperature 71 °F 75 °F 98 °F (1953)
Min Temperature 60 °F 54 °F 44 °F (1950)
Degree Days  
Heating Degree Days 0 2  
Month to date heating degree days 0 8  
Since 1 July heating degree days 35 40  
Cooling Degree Days 1 1  
Month to date cooling degree days 20 4  
Year to date cooling degree days 311 287  
Growing Degree Days 15 (Base 50)    
Moisture  
Dew Point 57 °F    
Average Humidity 76    
Maximum Humidity 90    
Minimum Humidity 61    
Precipitation  
Precipitation 0.00 in 0.01 in 0.20 in (1994)
Month to date precipitation 0.00 0.03  
Year to date precipitation 5.72 11.25  
Since 1 July precipitation 0.04  
Sea Level Pressure  
Sea Level Pressure 30.09 in    
Wind  
Wind Speed 4 mph (West)    
Max Wind Speed 13 mph    
Max Gust Speed 18 mph    
Visibility 9 miles    
Events      
T = Trace of Precipitation, MM = Missing Value Source: NWS Daily Summary

Daily Weather History Graph

Daily Weather History Graph

Search for Another Location

Airport or City:

Trip Planner

Search our weather history database for the weather conditions in past years. The results will help you decide how hot, cold, wet, or windy it might be!

Date:

Astronomy

Oct. 04, 2012 Rise Set
Actual Time 6:53 AM PDT 6:35 PM PDT
Civil Twilight 6:28 AM PDT 7:00 PM PDT
Nautical Twilight 5:59 AM PDT 7:29 PM PDT
Astronomical Twilight 5:30 AM PDT 7:58 PM PDT
Moon 9:27 PM PDT (10/4) 11:02 AM PDT (10/4)
Length of Visible Light 12h 32m
Length of Day
11h 42m
Waning Gibbous, 81% of the Moon is Illuminated
Oct 4
Waning Gibbous
Oct 8
Last Quarter
Oct 15
New
Oct 21
First Quarter
Oct 29
Full

Hourly Weather History & Observations

Time (PDT) Temp. Dew Point Humidity Pressure Visibility Wind Dir Wind Speed Gust Speed Precip Events Conditions
12:55 AM 63.0 °F 57.9 °F 84% 30.05 in 9.0 mi NNE 3.5 mph - N/A   Overcast
1:55 AM 63.0 °F 57.9 °F 84% 30.06 in 9.0 mi Calm Calm - N/A   Overcast
2:55 AM 63.0 °F 57.9 °F 84% 30.06 in 9.0 mi Calm Calm - N/A   Overcast
3:55 AM 63.0 °F 57.0 °F 81% 30.06 in 9.0 mi SW 3.5 mph - N/A   Overcast
4:55 AM 63.0 °F 57.0 °F 81% 30.06 in 9.0 mi Calm Calm - N/A   Overcast
5:55 AM 63.0 °F 57.0 °F 81% 30.08 in 9.0 mi NW 5.8 mph - N/A   Overcast
6:03 AM 62.6 °F 57.2 °F 82% 30.06 in 9.0 mi NW 4.6 mph - N/A   Overcast
6:55 AM 62.1 °F 55.9 °F 80% 30.09 in 9.0 mi NNW 4.6 mph - N/A   Overcast
7:55 AM 63.0 °F 55.9 °F 78% 30.11 in 7.0 mi NW 3.5 mph - N/A   Overcast
8:55 AM 63.0 °F 55.9 °F 78% 30.13 in 7.0 mi SW 3.5 mph - N/A   Overcast
9:55 AM 64.0 °F 55.9 °F 75% 30.14 in 7.0 mi Calm Calm - N/A   Overcast
10:53 AM 69.8 °F 57.2 °F 64% 30.11 in 7.0 mi Calm Calm - N/A   Clear
10:55 AM 69.1 °F 57.0 °F 65% 30.14 in 7.0 mi Variable 4.6 mph - N/A   Clear
11:55 AM 70.0 °F 55.9 °F 61% 30.13 in 9.0 mi SW 11.5 mph - N/A   Clear
12:55 PM 70.0 °F 55.9 °F 61% 30.11 in 10.0 mi WSW 8.1 mph - N/A   Clear
1:55 PM 70.0 °F 55.9 °F 61% 30.10 in 10.0 mi West 9.2 mph - N/A   Clear
2:55 PM 70.0 °F 55.9 °F 61% 30.09 in 10.0 mi West 10.4 mph - N/A   Clear
3:55 PM 69.1 °F 55.9 °F 63% 30.08 in 10.0 mi West 9.2 mph - N/A   Clear
4:55 PM 69.1 °F 57.9 °F 68% 30.06 in 10.0 mi West 10.4 mph - N/A   Clear
5:55 PM 66.0 °F 57.9 °F 75% 30.07 in 10.0 mi West 6.9 mph - N/A   Clear
6:55 PM 64.9 °F 57.9 °F 78% 30.07 in 10.0 mi West 5.8 mph - N/A   Scattered Clouds
7:55 PM 64.0 °F 57.9 °F 80% 30.07 in 10.0 mi Calm Calm - N/A   Clear
8:55 PM 63.0 °F 57.9 °F 84% 30.08 in 10.0 mi Calm Calm - N/A   Clear
9:55 PM 63.0 °F 57.9 °F 84% 30.08 in 10.0 mi Calm Calm - N/A   Clear
10:55 PM 61.0 °F 57.9 °F 90% 30.08 in 10.0 mi Calm Calm - N/A   Partly Cloudy
11:15 PM 60.8 °F 57.2 °F 88% 30.05 in 10.0 mi SE 3.5 mph - N/A   Mostly Cloudy
11:55 PM 61.0 °F 57.0 °F 87% 30.08 in 10.0 mi Calm Calm - N/A   Overcast